This is the latest recevied weather packets stored in our database for station/object VA3ZFM-10. If no packets are shown the sender has not sent any weather packets the latest 1 day(s).
| Time | Temp. | Humidity | Pressure | Rain* | Wind** | Luminosity | Snow |
|---|---|---|---|---|---|---|---|
| 1777979966 | 13.89° C | 78% | 997.9 hPa | 0 mm | 0.89 m/s, 207° | - | - |
| 1777979660 | 13.89° C | 78% | 997.9 hPa | 0 mm | 1.34 m/s, 189° | - | - |
| 1777979357 | 13.89° C | 77% | 997.9 hPa | 0 mm | 0.45 m/s, 193° | - | - |
| 1777979054 | 13.89° C | 77% | 997.9 hPa | 0 mm | 0.45 m/s, 190° | - | - |
| 1777978750 | 13.89° C | 77% | 997.9 hPa | 0 mm | 0.89 m/s, 207° | - | - |
| 1777978447 | 13.89° C | 76% | 997.9 hPa | 0 mm | 1.79 m/s, 226° | - | - |
| 1777978144 | 13.89° C | 76% | 997.9 hPa | 0 mm | 1.79 m/s, 195° | - | - |
| 1777977841 | 13.89° C | 76% | 997.7 hPa | 0 mm | 0.45 m/s, 179° | - | - |
| 1777977536 | 13.89° C | 76% | 997.7 hPa | 0 mm | 1.79 m/s, 174° | - | - |
| 1777977235 | 13.89° C | 76% | 997.5 hPa | 0 mm | 0.45 m/s, 199° | - | - |
| 1777976932 | 13.89° C | 76% | 997.4 hPa | 0 mm | 1.34 m/s, 186° | - | - |
| 1777976629 | 13.89° C | 76% | 997.5 hPa | 0 mm | 0.45 m/s, 173° | - | - |
| 1777976324 | 13.33° C | 76% | 997.4 hPa | 0 mm | 0.89 m/s, 170° | - | - |
| 1777976019 | 13.33° C | 76% | 997.5 hPa | 0 mm | 0.45 m/s, 208° | - | - |
| 1777975715 | 13.33° C | 76% | 997.6 hPa | 0 mm | 0.45 m/s, 124° | - | - |
| 1777975412 | 13.33° C | 77% | 997.6 hPa | 0 mm | 0.89 m/s, 168° | - | - |
| 1777975108 | 13.33° C | 77% | 997.4 hPa | 0 mm | 0.89 m/s, 139° | - | - |
| 1777974806 | 13.33° C | 77% | 997.5 hPa | 0 mm | 0.89 m/s, 125° | - | - |
| 1777974501 | 13.33° C | 77% | 997.5 hPa | 0 mm | 0.45 m/s, 162° | - | - |
| 1777974199 | 13.33° C | 76% | 997.7 hPa | 0 mm | 0.89 m/s, 170° | - | - |
| 1777973894 | 13.33° C | 76% | 997.3 hPa | 0 mm | 0.89 m/s, 205° | - | - |
| 1777973592 | 13.33° C | 77% | 997.6 hPa | 0 mm | 0.89 m/s, 180° | - | - |
| 1777973288 | 12.78° C | 76% | 997.7 hPa | 0 mm | 0.89 m/s, 196° | - | - |
| 1777972987 | 12.78° C | 76% | 997.5 hPa | 0 mm | 1.79 m/s, 145° | - | - |
| 1777972684 | 12.78° C | 76% | 997.9 hPa | 0 mm | 0.89 m/s, 204° | - | - |
* Rain latest hour (hover to see other rain measurements)
** Current wind speed in m/s (hover to see current wind gust speed)